Wind_Speed
19 19 20 20 21 21 20 21 21 21 21 20 21 22 23 23 23 23 22 21 21 21 21 22 22 22 22 22 21 21 21 21 21 21 21 21 21 20 20 21 21 21 21 21 20 20 20 19 20
20 20 21 21 22 21 22 22 22 22 22 22 22 23 23 23 23 23 22 22 22 22 22 23 23 23 23 23 23 23 22 22 22 22 22 22 22 22 22 22 22 22 22 22 22 22 22 22 22
21 22 22 22 22 22 23 22 23 22 23 24 24 24 24 24 24 24 24 24 24 23 24 24 24 24 24 24 24 24 24 24 24 24 24 24 24 24 24 24 24 24 24 24 24 24 24 24 24
22 22 23 23 23 23 24 23 23 24 24 25 26 26 25 25 25 26 26 26 26 25 25 25 26 26 26 26 26 26 26 26 26 26 26 26 26 26 26 26 26 26 26 26 26 26 26 26 26
23 23 24 24 23 24 25 24 24 25 25 26 27 27 26 27 27 27 27 27 27 27 27 28 28 28 28 28 28 29 29 28 28 28 28 28 28 28 28 28 28 28 27 27 28 28 27 27 27
24 24 24 24 25 25 25 25 25 27 27 27 28 29 27 28 28 28 29 29 29 29 29 29 30 30 30 30 30 30 31 31 31 30 30 31 30 30 30 30 30 30 30 29 29 29 30 29 29
24 24 24 24 25 26 26 26 27 27 28 28 28 30 29 28 29 30 30 30 30 30 30 30 31 31 32 32 32 33 33 33 33 33 33 33 33 32 32 32 32 32 32 32 32 32 31 31 31
24 25 25 25 26 27 25 26 28 28 28 28 29 31 29 28 29 30 31 31 32 32 32 32 33 33 34 35 35 35 36 36 36 36 36 35 35 35 35 35 35 35 35 35 35 35 34 33 32
24 25 25 26 27 27 26 27 28 29 29 29 30 31 30 30 31 32 32 32 33 33 34 34 35 35 36 37 37 38 38 38 38 38 38 38 38 38 38 38 38 38 37 37 37 37 36 36 35
22 23 24 25 26 26 26 27 27 28 29 30 31 32 32 32 33 33 33 34 34 35 36 36 36 37 37 38 39 39 40 40 40 41 41 41 41 41 41 41 41 40 40 40 39 39 38 38 38
20 21 23 23 24 25 26 27 27 28 29 30 31 31 32 33 34 34 35 35 36 36 37 37 38 38 39 39 40 41 41 42 43 43 43 43 43 43 43 43 43 43 43 43 43 42 41 41 41
19 20 21 22 24 25 26 26 27 28 29 30 30 31 32 32 34 35 36 36 37 37 38 39 40 40 41 41 42 42 43 43 44 44 44 45 45 45 45 45 45 45 45 45 44 44 44 43 43
19 19 20 22 23 24 25 26 26 27 28 29 30 32 32 33 34 35 36 37 37 38 38 39 40 41 42 43 43 43 44 45 46 46 46 46 47 47 47 47 47 47 47 47 47 46 46 45 45
19 19 20 21 22 24 25 26 26 27 29 29 30 31 32 33 34 35 36 37 38 38 39 40 41 42 43 43 44 44 44 45 46 47 48 48 49 50 50 50 50 50 49 49 49 49 49 48 47
20 20 20 21 22 23 25 25 26 27 29 29 30 31 32 33 34 35 36 37 38 39 39 40 41 43 44 44 44 44 45 45 47 48 49 49 51 51 52 52 52 53 52 52 52 52 52 51 50
21 21 22 22 23 23 25 25 26 27 29 30 31 32 33 34 35 36 37 37 38 39 39 40 41 42 43 44 45 46 46 47 48 49 51 52 52 53 54 54 54 54 54 54 54 54 54 53 52
23 23 24 24 23 25 25 26 27 28 29 30 32 33 34 35 36 37 37 38 38 39 40 41 41 42 43 44 46 47 48 49 50 51 53 54 55 56 56 56 56 57 56 56 56 56 56 55 55
25 25 25 26 25 26 26 27 28 29 30 31 32 33 34 34 36 37 38 38 39 40 41 42 42 43 45 46 47 48 50 51 52 53 54 55 56 57 58 58 58 58 58 58 58 58 58 58 57
27 27 27 28 28 28 28 28 28 30 31 31 33 34 35 35 36 37 38 39 40 40 42 43 44 45 46 47 49 50 51 51 53 54 55 56 57 58 59 59 59 60 61 61 61 61 61 61 60
28 28 29 30 30 30 30 30 30 30 31 33 33 34 35 36 38 38 39 40 41 42 43 44 46 47 48 49 50 51 52 52 54 55 56 57 58 58 59 61 62 62 63 63 63 63 63 62 61
31 31 31 32 32 32 33 32 31 31 32 33 34 35 35 37 38 39 40 41 42 43 44 46 47 48 49 50 51 52 53 54 55 56 57 58 59 59 60 62 63 63 64 64 64 64 63 62 62
33 33 33 34 34 35 35 36 32 33 33 34 35 36 36 37 39 40 40 42 44 45 46 47 48 49 51 52 53 54 55 55 56 57 58 59 60 60 61 62 63 64 65 64 63 63 63 63 63
35 35 35 36 37 38 37 38 35 35 34 34 35 36 37 38 40 41 41 43 44 45 46 48 49 50 51 53 54 55 56 57 57 58 59 60 61 61 61 62 63 63 64 64 63 63 63 63 63
37 37 38 39 39 40 38 39 38 37 36 36 36 37 38 40 41 42 43 43 44 46 48 49 50 51 52 54 56 57 58 58 59 59 60 61 61 62 61 62 62 62 62 62 62 62 61 60 61
38 39 40 41 42 42 41 41 40 39 38 39 39 39 40 41 43 43 44 44 46 47 48 50 51 52 54 55 57 58 59 59 59 60 60 61 61 61 61 61 61 61 61 61 61 60 59 58 58
40 40 41 42 44 44 44 44 42 41 41 41 41 42 42 44 45 45 46 47 48 49 50 51 52 53 54 55 56 57 58 59 59 59 59 60 59 58 59 59 58 58 58 58 58 57 56 56 56
41 41 41 43 45 46 45 45 45 44 43 43 43 44 45 46 47 48 49 50 51 52 52 53 54 54 55 56 57 57 57 58 58 57 57 57 56 57 56 55 54 54 55 55 54 54 54 54 53
43 43 43 43 45 46 47 46 46 46 45 46 46 46 47 48 49 50 51 52 53 53 54 54 55 55 56 57 57 56 57 56 56 56 55 55 54 54 52 51 50 49 49 50 50 50 51 50 50
44 45 45 46 46 47 48 48 47 48 47 48 48 49 49 50 51 52 53 53 54 54 55 55 55 55 55 56 56 55 56 55 54 53 53 53 52 51 49 47 46 45 45 46 47 47 48 47 46
47 46 46 46 47 48 49 51 47 47 48 48 49 49 50 51 52 54 54 54 55 55 56 56 56 55 54 55 55 55 55 53 52 52 52 51 49 48 47 45 44 43 43 43 43 44 45 46 45
Wind_Direction
243 244 244 245 245 246 246 245 245 244 245 246 246 247 248 251 253 255 256 254 252 252 252 252 253 254 254 255 255 256 256 256 256 256 256 258 260 261 263 263 262 260 260 261 261 261 262 262 263
245 245 245 246 247 247 247 246 246 246 247 247 247 248 250 251 253 255 256 255 253 252 252 253 254 255 255 255 255 256 257 257 257 257 257 258 259 260 261 263 264 263 262 262 262 262 262 262 262
246 246 247 248 249 249 250 248 249 248 249 249 249 249 251 252 253 255 255 256 255 254 254 255 256 256 256 256 256 257 257 258 258 258 258 259 259 259 260 262 263 264 264 264 264 263 263 264 264
248 248 249 249 250 251 252 252 252 251 250 251 250 250 252 253 254 255 255 256 256 256 256 256 257 257 257 258 258 258 259 259 260 260 260 261 261 261 261 262 263 264 265 265 265 264 263 264 265
249 250 250 251 251 251 253 252 252 253 252 253 253 253 252 253 254 255 256 257 257 257 258 258 258 259 259 259 260 261 261 261 261 261 262 263 263 263 264 264 264 265 265 266 266 265 264 263 264
250 251 251 251 251 251 252 253 254 255 255 255 256 256 254 255 255 256 257 257 258 258 259 259 260 260 260 260 260 261 262 262 263 263 263 264 264 264 264 264 265 265 264 265 266 267 267 265 265
251 252 253 253 253 254 254 254 255 256 257 257 258 259 257 257 258 258 258 258 259 259 260 260 260 261 261 261 261 261 262 262 263 263 264 264 265 265 264 264 265 265 264 264 265 266 266 266 266
252 253 254 255 256 257 256 255 256 256 257 258 259 260 260 259 259 260 260 260 260 260 261 261 262 262 263 263 263 262 262 263 263 263 264 264 264 265 266 265 265 265 265 264 264 264 264 265 267
254 255 255 256 257 259 258 258 258 258 259 259 260 262 262 260 260 260 260 260 261 261 262 262 263 263 263 263 263 263 263 263 264 264 264 264 264 264 265 266 266 266 265 264 264 264 264 265 266
257 258 257 258 260 260 260 260 260 260 261 261 261 262 262 261 261 261 262 262 262 263 263 264 264 264 264 264 264 263 263 263 264 264 264 264 264 264 264 265 266 266 266 265 264 264 264 265 266
261 260 260 260 261 262 262 262 262 262 262 263 264 264 264 263 263 263 263 264 264 264 265 265 265 265 265 265 264 264 264 263 263 264 264 264 265 264 264 265 265 266 266 266 264 264 264 265 266
263 263 263 262 262 263 263 263 263 264 264 265 265 266 266 266 266 265 265 265 265 265 266 266 266 267 267 267 266 266 265 264 264 264 264 265 265 265 265 265 265 265 266 266 265 265 264 264 265
266 267 267 266 265 265 265 265 266 267 266 267 267 267 268 268 268 268 268 267 267 268 268 268 268 268 268 268 267 266 266 265 264 264 264 264 265 265 265 265 265 265 266 265 265 265 264 264 264
270 270 271 271 269 267 267 268 269 269 269 269 269 269 270 270 270 270 270 270 269 269 269 269 270 270 270 269 267 267 266 265 264 264 264 264 265 265 264 264 264 265 266 266 265 265 264 264 263
272 272 272 274 274 271 270 271 272 271 271 271 272 272 272 272 273 273 272 272 272 271 270 271 272 272 270 269 267 267 267 267 267 266 266 266 266 265 265 264 264 264 264 264 264 264 264 263 263
272 273 274 274 275 275 274 275 274 274 274 274 275 274 274 274 274 274 274 274 274 273 272 273 273 273 271 269 269 270 269 270 270 268 267 267 267 267 266 265 265 265 264 264 263 263 263 263 263
272 274 276 276 276 276 277 279 278 278 278 278 278 278 277 277 276 275 275 275 275 274 274 274 275 274 274 272 272 272 272 272 272 271 269 268 268 268 268 267 266 265 264 264 264 264 263 263 263
274 275 276 278 278 278 279 280 282 282 282 282 281 281 281 280 280 278 276 276 276 276 275 275 276 275 274 274 274 274 274 274 274 274 271 270 270 270 269 268 267 266 265 265 265 265 264 264 263
276 277 278 278 280 280 281 282 282 283 284 284 284 284 283 282 282 281 278 277 277 277 277 277 277 277 276 276 276 276 276 276 276 276 274 272 271 270 270 269 268 266 266 265 266 265 265 264 264
275 277 278 279 280 281 281 282 282 283 285 285 285 285 285 284 284 284 282 280 280 279 279 279 279 279 278 279 279 278 278 278 278 277 275 273 272 271 270 270 269 268 267 266 266 266 265 264 264
275 277 278 279 281 281 281 281 282 283 285 286 285 286 287 286 285 285 284 282 282 281 281 281 281 281 280 281 281 281 280 280 279 278 276 274 273 272 272 271 270 270 269 268 267 266 265 263 263
273 276 278 280 281 281 282 283 283 284 285 286 286 287 288 287 287 287 285 283 284 283 283 283 282 281 282 282 283 282 282 282 281 280 278 276 275 274 273 272 272 271 270 269 268 267 265 264 262
273 276 278 279 280 282 283 284 284 286 287 287 288 289 290 290 289 288 287 286 285 285 285 285 284 284 284 284 284 284 284 283 283 282 280 278 276 275 275 274 273 271 269 268 267 267 265 264 262
274 275 277 278 280 281 284 284 285 287 289 289 290 290 291 291 291 290 288 287 287 287 287 286 286 286 286 286 286 286 285 285 284 283 281 279 277 275 275 275 273 271 269 268 267 266 265 263 261
273 275 277 279 280 282 283 284 286 288 290 291 291 292 291 291 291 290 289 288 288 289 289 288 288 289 288 288 288 288 287 286 285 284 282 280 278 276 276 276 274 271 269 268 267 265 263 261 260
273 274 277 279 281 283 283 285 287 289 290 291 292 292 292 292 292 291 290 290 291 291 291 291 290 291 291 291 290 289 288 287 286 285 284 281 279 277 277 275 273 271 269 267 265 264 262 260 259
272 273 275 277 279 281 283 285 286 288 289 291 293 293 293 293 293 293 293 292 292 292 292 293 293 293 292 293 292 291 289 288 287 286 284 282 280 277 276 275 273 271 268 265 264 263 260 259 258
272 274 275 276 278 281 282 285 287 288 290 292 293 295 294 294 294 293 293 293 294 294 294 295 295 296 295 294 293 292 290 289 287 286 284 283 280 278 276 276 273 270 267 265 263 262 258 257 257
271 272 273 275 277 280 282 284 287 289 290 292 293 294 294 295 295 295 295 295 295 296 296 296 297 296 296 296 294 292 291 289 287 286 284 283 280 278 276 275 272 270 266 265 263 262 256 255 254
269 271 272 274 277 278 280 282 285 287 289 290 291 292 293 294 295 295 295 296 296 297 297 297 297 297 298 297 295 293 290 288 286 285 285 283 280 277 275 273 272 270 266 264 263 261 256 253 251
Height
5810 5811 5812 5814 5816 5817 5818 5820 5821 5822 5824 5826 5827 5828 5829 5831 5833 5835 5835 5836 5837 5838 5839 5840 5841 5842 5843 5843 5844 5845 5846 5847 5847 5848 5849 5849 5850 5851 5851 5852 5852 5852 5853 5853 5854 5854 5854 5855 5855
5806 5808 5809 5811 5812 5813 5815 5816 5817 5819 5821 5822 5823 5825 5826 5827 5828 5830 5831 5832 5833 5835 5835 5836 5837 5838 5839 5840 5841 5842 5842 5843 5844 5845 5845 5846 5847 5847 5848 5848 5848 5849 5849 5850 5851 5851 5851 5851 5852
5802 5804 5806 5807 5808 5809 5810 5812 5813 5815 5817 5818 5819 5821 5822 5824 5825 5825 5827 5827 5829 5831 5832 5832 5833 5834 5835 5836 5837 5838 5839 5839 5840 5841 5842 5842 5843 5843 5844 5844 5845 5845 5846 5846 5847 5847 5848 5848 5848
5799 5800 5802 5803 5804 5805 5806 5808 5809 5811 5812 5813 5814 5816 5818 5819 5821 5821 5822 5823 5825 5826 5827 5828 5829 5830 5831 5832 5833 5834 5834 5835 5836 5837 5838 5838 5839 5839 5840 5840 5841 5841 5842 5842 5842 5843 5843 5844 5844
5794 5796 5797 5798 5800 5801 5801 5803 5805 5806 5807 5808 5809 5811 5814 5814 5815 5817 5818 5819 5820 5821 5823 5824 5825 5825 5826 5827 5828 5829 5830 5831 5831 5832 5833 5834 5834 5835 5836 5836 5837 5837 5837 5838 5838 5838 5839 5839 5839
5790 5791 5793 5794 5795 5796 5797 5799 5800 5801 5802 5803 5804 5806 5808 5809 5811 5812 5813 5814 5815 5816 5818 5818 5819 5820 5821 5822 5823 5824 5824 5825 5826 5827 5828 5828 5829 5830 5831 5831 5832 5832 5833 5833 5833 5834 5834 5834 5834
5786 5787 5788 5789 5789 5791 5793 5794 5795 5796 5797 5798 5799 5800 5803 5804 5805 5806 5807 5808 5809 5811 5812 5813 5814 5815 5816 5816 5817 5818 5819 5819 5820 5821 5822 5823 5823 5824 5825 5825 5826 5827 5827 5828 5828 5828 5829 5829 5829
5780 5782 5783 5784 5784 5785 5788 5788 5789 5791 5792 5793 5794 5795 5797 5799 5799 5800 5801 5802 5803 5804 5806 5807 5808 5808 5809 5810 5811 5812 5812 5813 5814 5815 5815 5816 5817 5818 5819 5819 5820 5820 5821 5822 5822 5822 5823 5823 5823
5775 5777 5777 5778 5779 5780 5782 5783 5784 5785 5786 5787 5788 5789 5791 5792 5793 5794 5795 5796 5797 5798 5799 5800 5801 5801 5802 5803 5804 5804 5805 5806 5807 5807 5808 5809 5810 5811 5811 5812 5813 5813 5814 5815 5815 5816 5816 5817 5818
5770 5771 5772 5773 5774 5775 5776 5777 5778 5779 5780 5781 5782 5783 5784 5785 5786 5787 5788 5789 5790 5791 5791 5792 5793 5794 5794 5795 5796 5797 5797 5798 5799 5800 5800 5801 5802 5803 5804 5805 5805 5806 5806 5807 5808 5809 5810 5810 5811
5766 5767 5767 5768 5768 5769 5770 5771 5772 5773 5774 5775 5776 5776 5777 5778 5779 5780 5781 5781 5782 5783 5784 5784 5785 5785 5786 5787 5787 5788 5789 5790 5790 5791 5792 5793 5793 5794 5795 5796 5797 5797 5798 5799 5800 5801 5802 5803 5803
5761 5762 5762 5763 5763 5764 5765 5765 5766 5767 5768 5769 5769 5769 5770 5771 5771 5772 5773 5773 5774 5775 5775 5776 5776 5777 5777 5778 5778 5779 5780 5780 5781 5782 5782 5783 5784 5785 5786 5787 5788 5788 5789 5790 5791 5792 5793 5794 5795
5757 5757 5757 5757 5758 5758 5759 5759 5760 5761 5761 5762 5762 5762 5763 5763 5764 5764 5764 5765 5766 5766 5767 5767 5767 5768 5768 5768 5769 5769 5770 5770 5771 5772 5773 5774 5774 5775 5776 5777 5778 5779 5779 5780 5781 5782 5783 5785 5786
5752 5752 5752 5752 5752 5753 5753 5754 5754 5755 5755 5755 5755 5755 5755 5755 5756 5756 5756 5756 5757 5757 5757 5757 5758 5758 5758 5758 5759 5759 5759 5760 5760 5761 5762 5763 5763 5764 5765 5766 5767 5768 5768 5769 5770 5771 5772 5774 5776
5747 5747 5748 5748 5747 5747 5748 5749 5748 5748 5748 5748 5748 5748 5748 5747 5747 5747 5747 5748 5748 5748 5748 5747 5747 5747 5747 5747 5748 5748 5749 5749 5749 5750 5751 5751 5751 5752 5753 5755 5756 5757 5757 5758 5759 5760 5761 5762 5764
5742 5742 5742 5743 5742 5742 5743 5743 5742 5741 5741 5741 5740 5740 5739 5739 5739 5738 5738 5738 5738 5738 5738 5738 5737 5736 5736 5736 5737 5737 5738 5738 5738 5738 5739 5739 5739 5739 5740 5742 5743 5744 5745 5746 5747 5748 5749 5750 5752
5737 5737 5736 5736 5736 5736 5736 5736 5735 5734 5733 5733 5732 5731 5731 5730 5729 5729 5729 5729 5728 5728 5728 5728 5727 5726 5726 5726 5726 5726 5726 5726 5726 5725 5725 5726 5726 5726 5727 5728 5729 5730 5731 5733 5734 5735 5736 5738 5739
5731 5731 5730 5729 5729 5729 5729 5729 5728 5726 5726 5725 5724 5723 5722 5721 5720 5719 5719 5719 5718 5718 5718 5717 5717 5716 5715 5715 5714 5714 5713 5713 5713 5712 5712 5712 5712 5712 5712 5713 5714 5715 5716 5718 5719 5720 5722 5724 5725
5724 5724 5723 5723 5722 5722 5722 5722 5721 5719 5718 5717 5716 5714 5713 5712 5711 5709 5708 5708 5708 5708 5707 5707 5706 5705 5704 5704 5703 5702 5701 5700 5699 5698 5697 5697 5696 5696 5697 5697 5698 5699 5700 5702 5703 5704 5706 5708 5709
5717 5717 5716 5716 5715 5714 5714 5714 5714 5712 5711 5709 5707 5705 5704 5703 5701 5700 5699 5698 5697 5697 5696 5695 5694 5693 5692 5691 5690 5688 5688 5687 5685 5684 5683 5681 5681 5681 5681 5681 5682 5682 5683 5685 5686 5687 5689 5691 5693
5710 5709 5709 5708 5707 5707 5706 5707 5706 5705 5703 5701 5699 5697 5695 5693 5692 5690 5689 5688 5687 5686 5685 5684 5682 5681 5679 5678 5677 5675 5674 5673 5671 5669 5668 5666 5665 5664 5664 5664 5665 5665 5665 5667 5668 5669 5671 5674 5676
5702 5701 5701 5700 5699 5698 5698 5696 5699 5697 5695 5693 5691 5689 5687 5685 5682 5680 5678 5677 5676 5675 5673 5671 5670 5668 5666 5664 5663 5661 5659 5658 5656 5654 5652 5651 5650 5649 5647 5647 5647 5647 5648 5648 5649 5651 5652 5655 5658
5693 5693 5693 5691 5689 5689 5689 5687 5690 5688 5687 5685 5683 5681 5678 5675 5673 5670 5668 5667 5665 5663 5661 5659 5657 5655 5653 5650 5648 5646 5644 5642 5640 5638 5636 5634 5633 5632 5630 5629 5629 5629 5629 5630 5631 5632 5634 5636 5639
5685 5685 5683 5681 5680 5680 5681 5679 5679 5678 5677 5676 5674 5671 5668 5666 5663 5661 5658 5656 5655 5652 5650 5647 5645 5642 5639 5636 5633 5631 5628 5626 5624 5622 5619 5617 5616 5615 5613 5611 5610 5610 5611 5612 5613 5614 5615 5618 5621
5676 5676 5674 5672 5670 5671 5671 5669 5671 5669 5668 5666 5664 5662 5659 5656 5654 5651 5649 5646 5644 5641 5638 5635 5632 5629 5625 5622 5618 5615 5612 5609 5607 5604 5602 5600 5598 5597 5595 5593 5592 5592 5593 5593 5595 5596 5598 5600 5603
5666 5666 5666 5663 5661 5660 5659 5659 5661 5660 5658 5656 5654 5652 5649 5646 5643 5640 5638 5635 5632 5629 5626 5622 5618 5614 5610 5607 5603 5599 5596 5593 5590 5587 5584 5582 5580 5578 5577 5576 5575 5575 5575 5576 5577 5579 5581 5584 5587
5656 5656 5656 5654 5651 5650 5650 5650 5650 5649 5648 5646 5644 5641 5638 5635 5632 5629 5626 5623 5619 5616 5612 5608 5604 5600 5596 5591 5588 5584 5580 5576 5573 5570 5568 5565 5563 5561 5560 5559 5559 5559 5559 5560 5561 5563 5565 5568 5572
5646 5645 5644 5643 5640 5639 5640 5640 5640 5638 5637 5635 5632 5630 5627 5623 5620 5617 5614 5610 5606 5602 5599 5594 5589 5585 5580 5576 5572 5568 5564 5560 5557 5555 5552 5549 5547 5545 5544 5543 5543 5544 5544 5545 5546 5548 5551 5553 5557
5635 5634 5633 5631 5630 5629 5628 5632 5630 5628 5626 5624 5621 5618 5614 5611 5608 5605 5601 5597 5593 5589 5585 5581 5576 5571 5566 5562 5557 5553 5549 5545 5542 5539 5537 5534 5532 5530 5529 5529 5529 5530 5531 5531 5533 5534 5537 5539 5543
5621 5622 5622 5622 5620 5618 5617 5622 5621 5619 5616 5613 5610 5606 5603 5599 5596 5592 5588 5584 5580 5576 5571 5566 5562 5557 5552 5547 5542 5538 5535 5531 5528 5525 5522 5519 5518 5517 5516 5516 5516 5517 5518 5519 5520 5522 5524 5526 5530